Regional Weather Roundup
Issued by NWS

Home | Current Version | Previous Version | Graphics & Text | Print | Product List | Glossary On
Versions: 1 2 3 4 5 6 7 8 9 10 11 12 13 14 15 16 17 18 19 20 21 22 23 24 25 26 27 28 29 30 31 32 33 34 35 36 37 38 39 40 41 42 43 44 45 46 47 48 49 50
000
ASUS43 KMPX 011210
RWRMN
WEATHER ROUNDUP FOR MINNESOTA
NATIONAL WEATHER SERVICE TWIN CITIES/CHANHASSEN MN
600 AM CST SUN FEB 01 2015


NOTE: "FAIR" INDICATES FEW OR NO CLOUDS BELOW 12,000 FEET WITH NO
SIGNIFICANT WEATHER AND/OR OBSTRUCTIONS TO VISIBILITY. N/A MEANS
CURRENT SKY AND/OR WEATHER CONDITIONS ARE NOT AVAILABLE.

MNZ060>063-068>070-011300-
   Twin Cities Metro

CITY           SKY/WX    TMP DP  RH WIND       PRES   REMARKS
TWIN CITIES    LGT SNOW  14   8  77 NE18G25   30.18S WCI  -3
6HR MIN TEMP:  14; 6HR MAX TEMP:  21; 6HR PCP:  0.01;

ST PAUL        LGT SNOW  15   8  73 NE13G18   30.21S WCI   1
CRYSTAL        CLOUDY    16   5  62 NE15G21   30.18F WCI   1
BLAINE         CLOUDY    18   7  62 NE13G18   30.19S WCI   4
LAKEVILLE      LGT SNOW  12  10  92 NE16      30.15R WCI  -4
EDEN PRAIRIE   LGT SNOW  15   8  73 NE12      30.16R WCI   2
6HR MIN TEMP:  15; 6HR MAX TEMP:  22; 6HR PCP: TRACE;

SOUTH ST PAUL  CLOUDY    16  10  77 N7        30.18S WCI   6
LAKE ELMO      CLOUDY    16   9  73 NE16      30.19S WCI   0
$$
MNZ001>005-007-008-013>017-022>024-027-028-011300-
   Northwest Minnesota

CITY           SKY/WX    TMP DP  RH WIND       PRES   REMARKS
BEMIDJI        FAIR     -12 -17  77 NE7       30.41S WCI -28
HALLOCK        MOCLDY   -15 -22  70 N7        30.58F WCI -31
ROSEAU         MOCLDY   -17 -24  70 N3        30.53S
WARROAD        MOCLDY   -20 -27  69 NW5       30.51F WCI -33
THIEF RVR FALL MOCLDY   -11 -20  64 N8        30.50S WCI -28
CROOKSTON      PTCLDY   -11 -17  77 N12       30.55S WCI -31
FOSSTON        PTCLDY   -11 -18  70 NE9       30.45S WCI -29
DETROIT LAKES  PTCLDY    -4  -9  77 NE12      30.37F WCI -22
MOORHEAD       PTCLDY    -2 -11  65 N20       30.45S WCI -25
PARK RAPIDS    PTCLDY    -5 -15  62 N14       30.35S WCI -25
MAHNOMEN       PTSUNNY   -7 -14  71 NE13      30.41F WCI -27
$$
MNZ006-009>011-018-025>026-011300-
   North Central Minnesota

CITY           SKY/WX    TMP DP  RH WIND       PRES   REMARKS
BAUDETTE       MOCLDY   -17 -22  78 N6        30.49S WCI -32
FLAG ISLAND    PTCLDY   -20 -26  76 NW7       30.52S WCI -37
INTL FALLS     MOCLDY   -26 -31  77 N3        30.47S HAZE
6HR MIN TEMP: -27; 6HR MAX TEMP: -11;

WASKISH        MOCLDY   -17 -20  83 CALM      30.46F
BIG FORK       MOCLDY   -15 -20  76 N5        30.41F WCI -27
LONGVILLE      CLOUDY    -6 -15  65 N7        30.36F WCI -20
GRAND RAPIDS   CLOUDY    -6 -15  65 N10       30.33F WCI -23
CRANE LAKE     MOCLDY   -27 -35  68 CALM      30.48S
ORR            MOCLDY   -20 -27  69 CALM      30.39S
COOK           MOCLDY   -17 -20  83 CALM      30.41S
WALKER         FAIR      -9 -17  70 N6        30.39S WCI -23
$$
MNZ012-019>021-037-011300-
   Northeast Minnesota

CITY           SKY/WX    TMP DP  RH WIND       PRES   REMARKS
DULUTH         PTCLDY    -1  -9  68 N10       30.29S WCI -17
6HR MIN TEMP:  -1; 6HR MAX TEMP:   2; 6HR PCP: TRACE;

ELY            PTCLDY   -15 -18  84 CALM      30.38F
HIBBING        CLOUDY    -6 -16  61 N10       30.36F WCI -24
EVELETH        CLOUDY    -8 -15  71 NE8       30.37S WCI -23
DULUTH HARBOR    N/A     12   9  85 NE30      30.35S WCI  -9
TWO HARBORS    PTCLDY     1  -6  71 N8        30.32F WCI -12
SILVER BAY     PTCLDY    -2 -13  60 N5        30.35F WCI -12
GRAND MARAIS     N/A     -5 -18  53 CALM      30.46F
G MARAIS ARPRT MOCLDY   -15 -22  70 N7        30.30F WCI -31
$$
MNZ029>031-032-039>041-046>048-054>057-064-011300-
   West Central Minnesota

CITY           SKY/WX    TMP DP  RH WIND       PRES   REMARKS
FERGUS FALLS   PTCLDY     0 -11  60 NE12G17   30.39S WCI -18
WHEATON        CLOUDY     0  -8  71 N18G25    30.38R WCI -22
MORRIS         FAIR       7  -2  66 N18       30.29R WCI -12
ALEXANDRIA     PTCLDY     2  -6  69 N15       30.27R WCI -17
ELBOW LAKE     CLOUDY     2  -6  69 N15G21    30.31S WCI -17
WADENA         PTCLDY    -2 -11  65 N16G23    30.32R WCI -23
GLENWOOD       MOCLDY     3  -4  72 N16       30.25S WCI -16
APPLETON       CLOUDY    10   0  61 N22       30.28R WCI  -9
BENSON         CLOUDY     9  -2  61 NE14G25   30.26R WCI  -8
ORTONVILLE     MOCLDY     5  -2  72 N18       30.30R WCI -15
MADISON        PTCLDY    12   3  67 N22       30.27R WCI  -7
WILLMAR        MOCLDY    12   1  62 NE21G26   30.22R WCI  -6
$$
MNZ033>034-036-042>043-049>051-058-059-011300-
   Central Minnesota

CITY           SKY/WX    TMP DP  RH WIND       PRES   REMARKS
ST CLOUD       MOCLDY     7  -2  66 N15       30.25R WCI -10
6HR MIN TEMP:   7; 6HR MAX TEMP:  16;

SAUK CENTRE    FAIR       5  -4  68 N12G20    30.26S WCI -11
PAYNESVILLE    CLOUDY     5  -2  71 N20G26    30.23S WCI -15
AITKIN         MOCLDY     1  -9  60 N6        30.32S WCI -10
PINE RIVER     CLOUDY    -2 -11  65 N17       30.36S WCI -24
BRAINERD       MOCLDY     0  -9  65 NE12      30.32R WCI -17
STAPLES        PTCLDY    -2  -9  71 N10G16    30.31S WCI -19
LONG PRAIRIE   FAIR       3  -6  66 N14G21    30.28R WCI -15
LITTLE FALLS   PTCLDY     3  -6  66 N6        30.30S WCI  -8
LITCHFIELD     CLOUDY    12   3  67 N16       30.20S WCI  -4
BUFFALO        CLOUDY    12   4  70 N15       30.21S WCI  -4
MAPLE LAKE     CLOUDY    13   6  74 NE13G20   30.22S WCI  -2
$$
MNZ037-044-045-052-053-011300-
   East Central Minnesota

CITY           SKY/WX    TMP DP  RH WIND       PRES   REMARKS
PRINCETON      CLOUDY    10   1  67 N13G18    30.24S WCI  -5
MORA           MOCLDY     7   0  72 N9        30.28S WCI  -7
CAMBRIDGE      CLOUDY    10   1  67 N7        30.23S WCI   0
RUSH CITY      CLOUDY     9   4  78 N10G18    30.26R WCI  -5
MOOSE LAKE     MOCLDY     1  -6  71 N8        30.30R WCI -12
HINCKLEY       CLOUDY     7   1  78 N13       30.28S WCI  -9
CLOQUET        MOCLDY    -2  -9  71 N10       30.29S WCI -19
MCGREGOR       MOCLDY     0  -8  71 N8        30.33S WCI -15
$$
MNZ071>073-080-081-089-090-097-098-011300-
   Southwest Minnesota

CITY           SKY/WX    TMP DP  RH WIND       PRES   REMARKS
MONTEVIDEO     CLOUDY    10   3  72 NE16G24   30.25R WCI  -7
GRANITE FALLS  CLOUDY    13   5  70 N18G24    30.22R WCI  -5
CANBY          CLOUDY     8   2  76 N20G26    30.25R WCI -11
MARSHALL       CLOUDY    12   7  79 N20G28    30.19R WCI  -6
REDWOOD FALLS  LGT SNOW  14   9  80 N10G24    30.17R WCI   1
OLIVIA         CLOUDY    14   9  79 NE16G26   30.18R WCI  -2
PIPESTONE      LGT SNOW  10   9  92 NE17G24   30.09R WCI  -7
WINDOM         LGT SNOW  14  12  92 N26G33    30.07R WCI  -6
WORTHINGTON    CLOUDY    27   9  46 N24G31    30.05R WCI  12
JACKSON        LGT SNOW  18  14  86 N24G32    30.04R WCI   0
TRACY          LGT SNOW  14  11  89 N21G26    30.14R WCI  -4
SLAYTON        LGT SNOW  13  10  89 N16G23    30.09R WCI  -3
$$
MNZ065>067-074>077-082>085-091>093-011300-
   South Central Minnesota

CITY           SKY/WX    TMP DP  RH WIND       PRES   REMARKS
MANKATO        CLOUDY    16  10  79 NE20G26   30.09S WCI  -1
NEW ULM        LGT SNOW  14  10  85 NE16G22   30.12S VSB 1   WCI  -2
FAIRMONT       CLOUDY    18  12  79 N17       30.03R WCI   2
GLENCOE        CLOUDY    16  11  81 N13G21    30.15S WCI   2
FARIBAULT      LGT SNOW  16  10  79 N16       30.10F WCI   0
OWATONNA       CLOUDY    16  10  79 NE21G28   30.06F WCI  -2
WASECA         LGT SNOW  18  14  86 NE22G29   30.07F WCI   0
ALBERT LEA     LGT SNOW  18  16  93 NE20G25   30.00F VSB 1   WCI   1
$$
MNZ078>079-086>088-094>096-011300-
   Southeast Minnesota

CITY           SKY/WX    TMP DP  RH WIND       PRES   REMARKS
ROCHESTER      LGT SNOW  17  13  84 NE22G29   30.04S VSB 1   WCI   0
6HR MIN TEMP:  17; 6HR MAX TEMP:  24; 6HR PCP:  0.12;

RED WING       LGT SNOW  16   9  73 E14       30.15F WCI   1
STANTON        LGT SNOW  16  12  82 NE15G23   30.12F WCI   2
DODGE CENTER   LGT SNOW  16  14  93 NE17G23   30.04S WCI   0
WINONA         LGT SNOW  19  18  93 NE9       30.14S WCI   9
AUSTIN         LGT SNOW  18  16  93 NE23      29.99F WCI   0
PRESTON          N/A     17  14  88 NE18G25   30.02S WCI   1
$$
ABBREVIATIONS USED IN REMARKS
   TC - TEMPERATURES IN CELSIUS
  WCI - WIND CHILL INDEX
   HX - HEAT INDEX
  VSB - VISIBILITY
$$



USA.gov is the U.S. government's official web portal to all federal, state and local government web resources and services.